Time,TemperatureF,DewpointF,PressureIn,WindDirection,WindDirectionDegrees,WindSpeedMPH,WindSpeedGustMPH,Humidity,HourlyPrecipIn,Conditions,Clouds,dailyrainin,SoftwareType,DateUTC
2013-09-20 17:47:00,75.9,63.3,29.92,SSW,203,0.0,1.0,65,0.00,,,0.00,meteohub,2013-09-20 21:47:00,
2013-09-20 17:51:00,75.7,63.1,29.92,West,262,1.0,3.0,65,0.00,,,0.00,meteohub,2013-09-20 21:51:00,
2013-09-20 17:57:00,75.6,63.3,29.92,WSW,250,0.0,3.0,66,0.00,,,0.00,meteohub,2013-09-20 21:57:00,
2013-09-20 18:03:00,75.0,63.0,29.92,South,188,0.0,2.0,66,0.00,,,0.00,meteohub,2013-09-20 22:03:00,
2013-09-20 18:06:00,74.8,63.1,29.91,SE,139,0.0,2.0,67,0.00,,,0.00,meteohub,2013-09-20 22:06:00,
2013-09-20 18:12:00,74.7,63.0,29.91,East,98,3.0,3.0,67,0.00,,,0.00,meteohub,2013-09-20 22:12:00,
2013-09-20 18:17:00,74.1,63.0,29.91,ESE,102,0.0,3.0,68,0.00,,,0.00,meteohub,2013-09-20 22:17:00,
2013-09-20 18:22:00,73.9,63.1,29.91,South,173,3.0,3.0,69,0.00,,,0.00,meteohub,2013-09-20 22:22:00,
2013-09-20 18:27:00,73.8,63.0,29.91,WSW,237,0.0,3.0,69,0.00,,,0.00,meteohub,2013-09-20 22:27:00,
2013-09-20 18:32:00,73.6,62.8,29.91,ESE,118,0.0,4.0,69,0.00,,,0.00,meteohub,2013-09-20 22:32:00,
2013-09-20 18:37:00,73.2,62.8,29.91,ESE,110,0.0,4.0,70,0.00,,,0.00,meteohub,2013-09-20 22:37:00,
2013-09-20 18:42:00,73.0,62.6,29.91,SSE,155,0.0,4.0,70,0.00,,,0.00,meteohub,2013-09-20 22:42:00,
2013-09-20 18:47:00,72.9,62.4,29.91,ESE,120,3.0,3.0,70,0.00,,,0.00,meteohub,2013-09-20 22:47:00,
2013-09-20 18:52:00,72.7,62.8,29.90,SE,128,0.0,4.0,71,0.00,,,0.00,meteohub,2013-09-20 22:52:00,
2013-09-20 18:57:00,72.5,62.6,29.90,SE,131,0.0,5.0,71,0.00,,,0.00,meteohub,2013-09-20 22:57:00,
2013-09-20 19:02:00,72.1,62.6,29.90,SSE,148,1.0,5.0,72,0.00,,,0.00,meteohub,2013-09-20 23:02:00,
2013-09-20 19:07:00,72.0,62.4,29.90,SSW,212,1.0,4.0,72,0.00,,,0.00,meteohub,2013-09-20 23:07:00,
2013-09-20 19:12:00,71.8,62.2,29.90,SE,138,1.0,4.0,72,0.00,,,0.00,meteohub,2013-09-20 23:12:00,
2013-09-20 19:17:00,71.4,62.2,29.90,North,0,2.0,4.0,73,0.00,,,0.00,meteohub,2013-09-20 23:17:00,
2013-09-20 19:22:00,71.2,62.1,29.89,NNE,22,2.0,5.0,73,0.00,,,0.00,meteohub,2013-09-20 23:22:00,
2013-09-20 19:27:00,71.1,61.9,29.89,South,184,0.0,5.0,73,0.00,,,0.00,meteohub,2013-09-20 23:27:00,
2013-09-20 19:32:00,70.9,62.2,29.89,South,176,2.0,3.0,74,0.00,,,0.00,meteohub,2013-09-20 23:32:00,
2013-09-20 19:37:00,70.5,62.2,29.90,South,182,1.0,3.0,75,0.00,,,0.00,meteohub,2013-09-20 23:37:00,
2013-09-20 19:43:00,70.3,62.1,29.90,SE,146,1.0,5.0,75,0.00,,,0.00,meteohub,2013-09-20 23:43:00,
2013-09-20 19:49:00,70.2,62.2,29.90,South,180,2.0,5.0,76,0.00,,,0.00,meteohub,2013-09-20 23:49:00,
2013-09-20 19:55:00,70.0,62.1,29.91,SE,146,1.0,4.0,76,0.00,,,0.00,meteohub,2013-09-20 23:55:00,
2013-09-20 20:01:00,69.8,61.9,29.91,ENE,67,0.0,4.0,76,0.00,,,0.00,meteohub,2013-09-21 00:01:00,
2013-09-20 20:07:00,69.6,62.1,29.91,NNE,23,1.0,4.0,77,0.00,,,0.00,meteohub,2013-09-21 00:07:00,
2013-09-20 20:12:00,69.4,61.9,29.91,SSE,157,2.0,4.0,77,0.00,,,0.00,meteohub,2013-09-21 00:12:00,
2013-09-20 20:17:00,69.3,62.1,29.91,North,11,0.0,2.0,78,0.00,,,0.00,meteohub,2013-09-21 00:17:00,
2013-09-20 20:23:00,69.1,61.9,29.91,ESE,118,0.0,2.0,78,0.00,,,0.00,meteohub,2013-09-21 00:23:00,
2013-09-20 20:29:00,69.1,61.9,29.91,SE,132,2.0,2.0,78,0.00,,,0.00,meteohub,2013-09-21 00:29:00,
2013-09-20 20:35:00,69.1,61.9,29.91,SSW,213,1.0,7.0,78,0.00,,,0.00,meteohub,2013-09-21 00:35:00,
2013-09-20 20:41:00,68.9,61.7,29.91,SSE,163,1.0,7.0,78,0.00,,,0.00,meteohub,2013-09-21 00:41:00,
2013-09-20 20:47:00,68.9,61.7,29.91,SSE,150,0.0,3.0,78,0.00,,,0.00,meteohub,2013-09-21 00:47:00,
2013-09-20 20:53:00,68.7,61.5,29.91,SE,136,2.0,3.0,78,0.00,,,0.00,meteohub,2013-09-21 00:53:00,
2013-09-20 20:59:00,68.7,61.9,29.91,ESE,111,2.0,2.0,79,0.00,,,0.00,meteohub,2013-09-21 00:59:00,
2013-09-20 21:05:00,68.9,62.1,29.92,South,173,0.0,3.0,79,0.00,,,0.00,meteohub,2013-09-21 01:05:00,
2013-09-20 21:11:00,68.9,62.1,29.92,SE,138,1.0,3.0,79,0.00,,,0.00,meteohub,2013-09-21 01:11:00,
2013-09-20 21:17:00,69.1,61.9,29.92,East,86,1.0,3.0,78,0.00,,,0.00,meteohub,2013-09-21 01:17:00,
2013-09-20 21:24:00,69.3,62.1,29.91,SE,138,0.0,4.0,78,0.00,,,0.00,meteohub,2013-09-21 01:24:00,
2013-09-20 21:30:00,69.3,62.1,29.91,SE,142,0.0,5.0,78,0.00,,,0.00,meteohub,2013-09-21 01:30:00,
2013-09-20 21:36:00,69.3,62.1,29.91,ENE,67,1.0,3.0,78,0.00,,,0.00,meteohub,2013-09-21 01:36:00,
2013-09-20 21:42:00,69.3,62.1,29.91,SSE,155,4.0,6.0,78,0.00,,,0.00,meteohub,2013-09-21 01:42:00,
2013-09-20 21:47:00,69.3,62.1,29.91,SE,140,0.0,6.0,78,0.00,,,0.00,meteohub,2013-09-21 01:47:00,
2013-09-20 21:52:00,69.1,62.2,29.92,SSE,157,0.0,4.0,79,0.00,,,0.00,meteohub,2013-09-21 01:52:00,
2013-09-20 21:57:00,69.1,62.2,29.92,ESE,123,1.0,4.0,79,0.00,,,0.00,meteohub,2013-09-21 01:57:00,
2013-09-20 22:03:00,68.7,61.9,29.92,ENE,63,3.0,8.0,79,0.00,,,0.00,meteohub,2013-09-21 02:03:00,
2013-09-20 22:09:00,68.7,62.2,29.92,SSE,159,0.0,8.0,80,0.00,,,0.00,meteohub,2013-09-21 02:09:00,
2013-09-20 22:15:00,68.5,62.1,29.92,ESE,117,0.0,5.0,80,0.00,,,0.00,meteohub,2013-09-21 02:15:00,
2013-09-20 22:21:00,68.4,62.2,29.91,SSE,154,0.0,5.0,81,0.00,,,0.00,meteohub,2013-09-21 02:21:00,
2013-09-20 22:27:00,68.4,62.2,29.91,ESE,116,1.0,5.0,81,0.00,,,0.00,meteohub,2013-09-21 02:27:00,
2013-09-20 22:32:00,68.4,62.2,29.91,SE,138,1.0,5.0,81,0.00,,,0.00,meteohub,2013-09-21 02:32:00,
2013-09-20 22:37:00,68.2,62.4,29.91,SE,135,1.0,5.0,82,0.00,,,0.00,meteohub,2013-09-21 02:37:00,
2013-09-20 22:42:00,67.8,62.1,29.91,SE,139,1.0,5.0,82,0.00,,,0.00,meteohub,2013-09-21 02:42:00,
2013-09-20 22:47:00,67.8,62.1,29.91,ESE,119,2.0,6.0,82,0.00,,,0.00,meteohub,2013-09-21 02:47:00,
2013-09-20 22:52:00,67.6,61.9,29.91,SSE,165,1.0,6.0,82,0.00,,,0.00,meteohub,2013-09-21 02:52:00,
2013-09-20 23:15:00,67.5,62.1,29.91,SE,143,1.0,5.0,83,0.00,,,0.00,meteohub,2013-09-21 03:15:00,
2013-09-20 23:21:00,67.6,62.2,29.91,SE,136,0.0,3.0,83,0.00,,,0.00,meteohub,2013-09-21 03:21:00,
2013-09-20 23:27:00,67.6,62.2,29.90,ESE,103,1.0,5.0,83,0.00,,,0.00,meteohub,2013-09-21 03:27:00,
2013-09-20 23:32:00,67.8,62.4,29.90,SSE,155,2.0,5.0,83,0.00,,,0.00,meteohub,2013-09-21 03:32:00,
2013-09-20 23:37:00,67.8,62.4,29.90,ESE,103,4.0,5.0,83,0.00,,,0.00,meteohub,2013-09-21 03:37:00,
2013-09-20 23:42:00,67.8,62.1,29.90,SSE,157,2.0,9.0,82,0.00,,,0.00,meteohub,2013-09-21 03:42:00,
2013-09-20 23:47:00,67.8,62.1,29.90,SE,146,0.0,9.0,82,0.00,,,0.00,meteohub,2013-09-21 03:47:00,
2013-09-20 23:52:00,67.8,62.1,29.90,South,175,1.0,9.0,82,0.00,,,0.00,meteohub,2013-09-21 03:52:00,
2013-09-20 23:57:00,67.8,62.1,29.90,SE,138,0.0,7.0,82,0.00,,,0.00,meteohub,2013-09-21 03:57:00,